Regional Weather Roundup
Issued by NWS

Home | Current Version | Previous Version | Text Only | Print | Product List | Glossary Off
Versions: 1 2 3 4 5 6 7 8 9 10 11 12 13 14 15 16 17 18 19 20 21 22 23 24 25 26 27 28 29 30 31 32 33 34 35 36 37 38 39 40 41 42 43 44 45 46 47 48 49 50

709
ASUS43 KDTX 052010
RWRMI
MICHIGAN HOURLY REGIONAL WEATHER ROUNDUP
NATIONAL WEATHER SERVICE DETROIT/PONTIAC MI
300 PM EST FRI FEB 05 2016

NOTE: "FAIR" INDICATES FEW OR NO CLOUDS BELOW 12,000 FEET WITH NO
SIGNIFICANT WEATHER AND/OR OBSTRUCTION TO VISIBILITY.

MIZ047>049-052>055-059>063-066>070-074>076-081>083-052100-
SOUTHEAST LOWER MICHIGAN

CITY           SKY/WX    TMP DP  RH WIND       PRES   REMARKS
ADRIAN         CLOUDY    42  23  46 SW13      30.28F
ALMA           LGT SNOW  31  29  92 SW5       30.27F WCI  27
ANN ARBOR      SUNNY     38  22  52 SW8       30.27F WCI  32
BAD AXE        FLURRIES  32  27  83 W5        30.27F WCI  27
CARO           LGT SNOW  32  28  86 W5        30.26F WCI  27
DETROIT CITY   PTSUNNY   36  21  54 S12       30.29F WCI  28
DETROIT        MOSUNNY   39  21  48 S8        30.30F WCI  33
FLINT          CLOUDY    39  21  48 W10       30.26F WCI  32
GROSSE ILE     SUNNY     36  27  69 S8        30.29F WCI  29
HILLSDALE      CLOUDY    36  23  59 SW7       30.25F WCI  31
HOWELL         PTSUNNY   37  22  53 SW10      30.25S WCI  30

CITY           SKY/WX    TMP DP  RH WIND       PRES   REMARKS
JACKSON        CLOUDY    37  22  54 W15       30.25F WCI  28
LAMBERTVILLE   MOSUNNY   38  20  49 SW8       30.29F WCI  32
LANSING        CLOUDY    34  25  69 NW9       30.27S WCI  27
LAPEER         CLOUDY    35  23  62 W8        30.26F WCI  28
MASON          CLOUDY    36  22  58 SW6       30.26S WCI  31
MONROE         MOSUNNY   38  22  51 SW6       30.29S WCI  33
MT. CLEMENS    PTSUNNY   35  27  74 S12       30.27F WCI  27
PONTIAC        CLOUDY    37  20  50 SW8       30.25F WCI  31
PORT HOPE        N/A     31  25  78 SW5       30.25F WCI  26
PORT HURON     MOSUNNY   36  25  64 SW8       30.29F WCI  29
TRI CITIES     SNOW      32  28  85 SW7       30.27F VSB 1/2 WCI  26
MIDLAND        LGT SNOW  32  26  79 SW6       30.26F WCI  26
TROY           CLOUDY    39  20  46 S12G18    30.29F WCI  31
SAGINAW HB     LGT SNOW  34  30  86 W5        30.27F WCI  30
$$
MIZ043>046-050>051-056>058-064>065-071>073-077>080-052100-
SOUTHWEST LOWER MICHIGAN

CITY           SKY/WX    TMP DP  RH WIND       PRES   REMARKS
BATTLE CREEK   CLOUDY    34  25  69 SW8       30.27F WCI  27
BENTON HARBOR  CLOUDY    31  25  78 VRB6G18   30.32R WCI  25
BIG RAPIDS     CLOUDY    31  23  73 W7        30.24F WCI  24
COLDWATER      PTSUNNY   35  26  69 SW7       30.27S WCI  30
FREMONT        CLOUDY    29  22  74 W9        30.27S WCI  21
HOLLAND        CLOUDY    31  24  75 NW6       30.30F WCI  25
GRAND RAPIDS   LGT SNOW  31  27  85 W7        30.28S FOG     WCI  24
IONIA          LGT SNOW  31  29  91 W7        30.26F WCI  24
KALAMAZOO      CLOUDY    34  25  69 SW7       30.27F WCI  28
LUDINGTON      CLOUDY    30  20  66 W8        30.29S WCI  22
MARSHALL       CLOUDY    35  25  67 SW6       30.26F WCI  30
MOUNT PLEASANT CLOUDY    32  25  75 W5        30.25F WCI  28
MUSKEGON       CLOUDY    31  21  66 NW9       30.30S WCI  23
SOUTH HAVEN    CLOUDY    31  26  83 NW9       30.31R WCI  23
$$
MIZ016>042-052100-
NORTHERN LOWER MICHIGAN

CITY           SKY/WX    TMP DP  RH WIND       PRES   REMARKS
ALPENA         LGT SNOW  28  21  75 CALM      30.25S
BEAVER ISLAND  SUNNY     29  17  60 W8        30.25F WCI  21
BELLAIRE       CLOUDY    30  18  61 N3        30.26F
CADILLAC       LGT SNOW  28  23  81 W8        30.21F WCI  20
CHARLEVOIX     SUNNY     29  17  59 W7        30.28F WCI  22
FRANKFORT      MOSUNNY   29  19  66 NW9       30.28S WCI  20
GAYLORD        LGT SNOW  27  20  75 W6        30.20F WCI  20
GRAYLING       CLOUDY    28  21  76 W8        30.23S WCI  20
HARBOR SPRINGS MOSUNNY   30  17  58 W9        30.25S WCI  21
HOUGHTON LAKE  CLOUDY    28  22  78 W6        30.23F WCI  22
MANISTEE       CLOUDY    28  16  59 W10       30.29S WCI  19
OSCODA         CLOUDY    31  22  70 W8        30.25F WCI  24
PELLSTON       SUNNY     26  14  60 NW12      30.25S WCI  16
ROGERS CITY    CLOUDY    29  18  62 W8        30.25S WCI  22
TRAVERSE CITY  FLURRIES  30  19  63 NW6       30.25F WCI  24
$$
MIZ007>008-015-052100-
EASTERN UPPER MICHIGAN

CITY           SKY/WX    TMP DP  RH WIND       PRES   REMARKS
KINROSS        CLOUDY    25  21  86 NW9       30.21S WCI  15
MACKINAC ISLAN SUNNY     27  19  72 W7G16     30.23S WCI  19
NEWBERRY       CLOUDY    26  14  61 N7        30.22S WCI  18
S. S. MARIE    LGT SNOW  26  19  74 NW13G20   30.21S WCI  15
MUNISING         N/A     24  18  77 N6        30.25F WCI  17
$$
MIZ004>006-011>014-085-052100-
CENTRAL UPPER MICHIGAN

CITY           SKY/WX    TMP DP  RH WIND       PRES   REMARKS
MANISTIQUE     CLOUDY    28  13  51 W6        30.24F WCI  22
ESCANABA       SUNNY     28  12  50 CALM      30.25F
MENOMINEE      SUNNY     27  12  54 W7        30.28S WCI  19
SAWYER-GWINN   SUNNY     23  10  58 NW6       30.20F WCI  16
$$
MIZ001>003-009>011-084-052100-
WESTERN UPPER MICHIGAN

CITY           SKY/WX    TMP DP  RH WIND       PRES   REMARKS
IRON MOUNTAIN  SUNNY     27   9  46 NW6       30.22F WCI  20
HOUGHTON       PTSUNNY   23  11  60 W12       30.20F WCI  12
COPPER HARBOR    N/A     25  12  58 N10       30.23F WCI  15
IRONWOOD       CLOUDY    25  10  54 S8        30.17F WCI  16
$$

ABBREVIATIONS USED IN REMARKS
   TC - TEMPERATURE IN CELSIUS
  WCI - WIND CHILL INDEX
   HX - HEAT INDEX
  VSB - VISIBILITY





USA.gov is the U.S. government's official web portal to all federal, state and local government web resources and services.